| time (UTC) | temp F | wind direction | speed knots | gust knots | rain 1hr in | rain 24hr in | rain mn in | humidity % | barometer mb |
| 20260503021817 | 41 | 352 | 0.0 | 0.0 | 0.00 | 0.00 | 0.00 | 57 | 1014.6 |
| 20260503021313 | 41 | 4 | 0.0 | 0.0 | 0.00 | 0.00 | 0.00 | 57 | 1014.3 |
| 20260503020811 | 41 | 5 | 0.0 | 0.0 | 0.00 | 0.00 | 0.00 | 57 | 1014.5 |
| 20260503020309 | 41 | 350 | 0.0 | 0.0 | 0.00 | 0.00 | 0.00 | 57 | 1014.4 |
| 20260503015804 | 41 | 357 | 0.0 | 0.0 | 0.00 | 0.00 | 0.00 | 58 | 1014.5 |
| 20260503015305 | 42 | 8 | 0.0 | 0.0 | 0.00 | 0.00 | 0.00 | 57 | 1014.4 |
| 20260503014757 | 42 | 3 | 0.0 | 0.0 | 0.00 | 0.00 | 0.00 | 56 | 1014.3 |
| 20260503014255 | 42 | 0 | 0.0 | 0.0 | 0.00 | 0.00 | 0.00 | 56 | 1014.4 |
| 20260503013752 | 42 | 8 | 0.0 | 0.0 | 0.00 | 0.00 | 0.00 | 55 | 1014.1 |
| 20260503013250 | 42 | 6 | 0.0 | 0.0 | 0.00 | 0.00 | 0.00 | 54 | 1014.1 |
| 20260503012747 | 43 | 9 | 0.0 | 0.0 | 0.00 | 0.00 | 0.00 | 53 | 1014.3 |
| 20260503012244 | 43 | 14 | 0.0 | 0.0 | 0.00 | 0.00 | 0.00 | 53 | 1014.0 |
| 20260503011741 | 43 | 7 | 0.0 | 0.0 | 0.00 | 0.00 | 0.00 | 53 | 1014.4 |
| 20260503011238 | 44 | 43 | 0.0 | 0.0 | 0.00 | 0.00 | 0.00 | 53 | 1014.2 |
| 20260503010734 | 44 | 18 | 0.0 | 0.0 | 0.00 | 0.00 | 0.00 | 52 | 1014.2 |
| 20260503010231 | 44 | 349 | 0.0 | 0.0 | 0.00 | 0.00 | 0.00 | 51 | 1014.3 |
| 20260503005728 | 45 | 351 | 0.0 | 0.0 | 0.00 | 0.00 | 0.00 | 50 | 1014.1 |
| 20260503005226 | 45 | 358 | 0.0 | 0.0 | 0.00 | 0.00 | 0.00 | 50 | 1014.1 |
| 20260503004721 | 46 | 337 | 0.0 | 0.0 | 0.00 | 0.00 | 0.00 | 49 | 1014.1 |
| 20260503004220 | 46 | 358 | 0.0 | 0.0 | 0.00 | 0.00 | 0.00 | 48 | 1014.1 |
| 20260503003717 | 46 | 332 | 0.9 | 2.6 | 0.00 | 0.00 | 0.00 | 47 | 1013.7 |
| 20260503003214 | 46 | 348 | 0.9 | 1.7 | 0.00 | 0.00 | 0.00 | 46 | 1014.0 |
| 20260503002710 | 46 | 0 | 0.9 | 0.9 | 0.00 | 0.00 | 0.00 | 47 | 1014.0 |
| 20260503002207 | 47 | 299 | 0.0 | 0.0 | 0.00 | 0.00 | 0.00 | 48 | 1014.1 |
| 20260503001703 | 47 | 20 | 2.6 | 2.6 | 0.00 | 0.00 | 0.00 | 45 | 1014.0 |
| 20260503001200 | 47 | 5 | 1.7 | 2.6 | 0.00 | 0.00 | 0.00 | 45 | 1014.0 |
| 20260503000658 | 48 | 348 | 1.7 | 2.6 | 0.00 | 0.00 | 0.00 | 44 | 1013.7 |
| 20260503000155 | 48 | 19 | 2.6 | 2.6 | 0.00 | 0.00 | 0.00 | 44 | 1013.8 |
| 20260502235652 | 48 | 16 | 2.6 | 2.6 | 0.00 | 0.00 | 0.00 | 44 | 1014.0 |
| 20260502235150 | 49 | 324 | 1.7 | 1.7 | 0.00 | 0.00 | 0.00 | 44 | 1013.8 |
| 20260502234645 | 49 | 4 | 0.0 | 0.9 | 0.00 | 0.00 | 0.00 | 45 | 1014.0 |
| 20260502234143 | 49 | 347 | 0.9 | 1.7 | 0.00 | 0.00 | 0.00 | 44 | 1014.0 |
| 20260502233639 | 49 | 18 | 0.0 | 0.9 | 0.00 | 0.00 | 0.00 | 45 | 1014.0 |
| 20260502233136 | 49 | 356 | 0.9 | 1.7 | 0.00 | 0.00 | 0.00 | 43 | 1014.3 |
| 20260502232631 | 50 | 353 | 0.9 | 1.7 | 0.00 | 0.00 | 0.00 | 43 | 1013.8 |
| 20260502232130 | 49 | 328 | 0.9 | 1.7 | 0.00 | 0.00 | 0.00 | 43 | 1014.2 |
| 20260502231626 | 51 | 69 | 2.6 | 2.6 | 0.00 | 0.00 | 0.00 | 41 | 1014.1 |
| 20260502231124 | 51 | 334 | 1.7 | 2.6 | 0.00 | 0.00 | 0.00 | 41 | 1014.0 |
| 20260502230622 | 51 | 346 | 0.9 | 0.9 | 0.00 | 0.00 | 0.00 | 41 | 1014.3 |
| 20260502230120 | 51 | 314 | 0.0 | 0.0 | 0.00 | 0.00 | 0.00 | 41 | 1014.1 |
| 20260502225615 | 49 | 341 | 2.6 | 2.6 | 0.00 | 0.00 | 0.00 | 43 | 1014.1 |
| 20260502225113 | 49 | 353 | 1.7 | 2.6 | 0.00 | 0.00 | 0.00 | 45 | 1014.2 |
| 20260502224609 | 51 | 54 | 1.7 | 1.7 | 0.00 | 0.00 | 0.00 | 41 | 1014.0 |
| 20260502224106 | 51 | 189 | 3.5 | 5.2 | 0.00 | 0.00 | 0.00 | 41 | 1014.0 |
| 20260502223603 | 50 | 354 | 1.7 | 2.6 | 0.00 | 0.00 | 0.00 | 43 | 1014.2 |
| 20260502223102 | 50 | 21 | 0.9 | 1.7 | 0.00 | 0.00 | 0.00 | 45 | 1014.3 |
| 20260502222559 | 49 | 1 | 0.9 | 0.9 | 0.00 | 0.00 | 0.00 | 44 | 1014.4 |
| 20260502222055 | 50 | 302 | 0.9 | 2.6 | 0.00 | 0.00 | 0.00 | 43 | 1014.0 |
| 20260502221551 | 51 | 38 | 3.5 | 4.3 | 0.00 | 0.00 | 0.00 | 42 | 1014.3 |
| 20260502221048 | 51 | 83 | 2.6 | 4.3 | 0.00 | 0.00 | 0.00 | 40 | 1014.2 |
| 20260502220544 | 51 | 26 | 1.7 | 1.7 | 0.00 | 0.00 | 0.00 | 43 | 1014.5 |
| 20260502220041 | 51 | 196 | 1.7 | 4.3 | 0.00 | 0.00 | 0.00 | 42 | 1014.1 |
| 20260502215538 | 51 | 19 | 2.6 | 2.6 | 0.00 | 0.00 | 0.00 | 42 | 1014.4 |
| 20260502215035 | 49 | 26 | 0.9 | 0.9 | 0.00 | 0.00 | 0.00 | 43 | 1014.4 |
| 20260502214532 | 49 | 14 | 1.7 | 1.7 | 0.00 | 0.00 | 0.00 | 44 | 1014.3 |
| 20260502214029 | 49 | 319 | 1.7 | 2.6 | 0.00 | 0.00 | 0.00 | 44 | 1014.4 |
| 20260502213526 | 49 | 61 | 0.9 | 1.7 | 0.00 | 0.00 | 0.00 | 43 | 1014.4 |
| 20260502213024 | 49 | 317 | 0.0 | 0.9 | 0.00 | 0.00 | 0.00 | 43 | 1014.5 |
| 20260502212522 | 48 | 28 | 2.6 | 2.6 | 0.00 | 0.00 | 0.00 | 45 | 1014.5 |
| 20260502212020 | 48 | 6 | 2.6 | 5.2 | 0.00 | 0.00 | 0.00 | 45 | 1014.3 |
| 20260502211515 | 48 | 18 | 3.5 | 5.2 | 0.00 | 0.00 | 0.00 | 44 | 1014.7 |
| 20260502211013 | 48 | 2 | 1.7 | 1.7 | 0.00 | 0.00 | 0.00 | 44 | 1014.4 |
| 20260502210509 | 48 | 12 | 2.6 | 2.6 | 0.00 | 0.00 | 0.00 | 45 | 1014.5 |
| 20260502210007 | 48 | 354 | 1.7 | 2.6 | 0.00 | 0.00 | 0.00 | 45 | 1014.6 |
| 20260502205503 | 49 | 347 | 0.9 | 0.9 | 0.00 | 0.00 | 0.00 | 43 | 1014.5 |
| 20260502205000 | 51 | 266 | 0.0 | 0.9 | 0.00 | 0.00 | 0.00 | 45 | 1014.5 |
| 20260502204456 | 50 | 14 | 0.9 | 0.9 | 0.00 | 0.00 | 0.00 | 46 | 1014.6 |
| 20260502203955 | 49 | 15 | 2.6 | 4.3 | 0.00 | 0.00 | 0.00 | 45 | 1014.7 |
| 20260502203451 | 49 | 6 | 1.7 | 2.6 | 0.00 | 0.00 | 0.00 | 45 | 1014.8 |
| 20260502202948 | 48 | 13 | 2.6 | 5.2 | 0.00 | 0.00 | 0.00 | 45 | 1014.8 |
| 20260502202445 | 50 | 78 | 1.7 | 4.3 | 0.00 | 0.00 | 0.00 | 45 | 1014.9 |
| 20260502201943 | 51 | 152 | 0.9 | 0.9 | 0.00 | 0.00 | 0.00 | 46 | 1014.8 |
| 20260502201438 | 51 | 10 | 4.3 | 6.1 | 0.00 | 0.00 | 0.00 | 43 | 1015.0 |
| 20260502200935 | 51 | 14 | 4.3 | 5.2 | 0.00 | 0.00 | 0.00 | 44 | 1014.9 |
| 20260502200431 | 51 | 311 | 0.9 | 1.7 | 0.00 | 0.00 | 0.00 | 46 | 1014.9 |
| 20260502195929 | 48 | 39 | 3.5 | 5.2 | 0.00 | 0.00 | 0.00 | 45 | 1015.1 |
| 20260502195426 | 47 | 335 | 1.7 | 2.6 | 0.00 | 0.00 | 0.00 | 45 | 1015.1 |
| 20260502194922 | 48 | 43 | 2.6 | 4.3 | 0.00 | 0.00 | 0.00 | 46 | 1015.3 |
| 20260502194419 | 48 | 5 | 1.7 | 1.7 | 0.00 | 0.00 | 0.00 | 46 | 1015.3 |
| 20260502193915 | 49 | 333 | 3.5 | 6.1 | 0.00 | 0.00 | 0.00 | 43 | 1015.3 |
| 20260502193413 | 51 | 86 | 2.6 | 2.6 | 0.00 | 0.00 | 0.00 | 44 | 1015.3 |
| 20260502192908 | 48 | 95 | 1.7 | 1.7 | 0.00 | 0.00 | 0.00 | 46 | 1015.3 |
| 20260502192405 | 48 | 348 | 0.9 | 1.7 | 0.00 | 0.00 | 0.00 | 46 | 1015.5 |
| 20260502191902 | 49 | 17 | 1.7 | 2.6 | 0.00 | 0.00 | 0.00 | 45 | 1015.7 |
| 20260502191400 | 51 | 63 | 1.7 | 1.7 | 0.00 | 0.00 | 0.00 | 42 | 1015.7 |
| 20260502190857 | 50 | 309 | 0.0 | 0.9 | 0.00 | 0.00 | 0.00 | 44 | 1015.6 |
| 20260502190354 | 48 | 39 | 2.6 | 2.6 | 0.00 | 0.00 | 0.00 | 43 | 1015.8 |
| 20260502185850 | 48 | 15 | 0.9 | 1.7 | 0.00 | 0.00 | 0.00 | 45 | 1015.7 |
| 20260502185345 | 49 | 317 | 0.9 | 1.7 | 0.00 | 0.00 | 0.00 | 46 | 1015.8 |
| 20260502184843 | 49 | 5 | 1.7 | 2.6 | 0.00 | 0.00 | 0.00 | 45 | 1016.0 |
| 20260502184338 | 49 | 20 | 2.6 | 2.6 | 0.00 | 0.00 | 0.00 | 44 | 1015.8 |
| 20260502183835 | 49 | 39 | 3.5 | 4.3 | 0.00 | 0.00 | 0.00 | 43 | 1015.9 |
| 20260502183331 | 49 | 326 | 0.0 | 0.9 | 0.00 | 0.00 | 0.00 | 47 | 1015.8 |
| 20260502182826 | 50 | 248 | 2.6 | 4.3 | 0.00 | 0.00 | 0.00 | 43 | 1016.1 |
| 20260502182322 | 48 | 12 | 1.7 | 1.7 | 0.00 | 0.00 | 0.00 | 44 | 1015.9 |
| 20260502181819 | 47 | 356 | 2.6 | 2.6 | 0.00 | 0.00 | 0.00 | 46 | 1016.0 |
| 20260502181318 | 47 | 324 | 0.9 | 1.7 | 0.00 | 0.00 | 0.00 | 47 | 1016.2 |
| 20260502180815 | 46 | 38 | 2.6 | 2.6 | 0.00 | 0.00 | 0.00 | 46 | 1016.3 |
| 20260502180312 | 45 | 33 | 2.6 | 2.6 | 0.00 | 0.00 | 0.00 | 47 | 1016.3 |
| 20260502170231 | 46 | 306 | 2.6 | 2.6 | 0.00 | 0.00 | 0.00 | 45 | 1016.5 |
| 20260502164219 | 46 | 21 | 0.9 | 0.9 | 0.00 | 0.00 | 0.00 | 45 | 1016.7 |
| 20260502163714 | 46 | 27 | 0.9 | 1.7 | 0.00 | 0.00 | 0.00 | 46 | 1016.7 |
| 20260502163211 | 46 | 31 | 1.7 | 2.6 | 0.00 | 0.00 | 0.00 | 47 | 1016.7 |
| 20260502162708 | 46 | 19 | 4.3 | 6.1 | 0.00 | 0.00 | 0.00 | 43 | 1016.6 |
| 20260502162204 | 45 | 14 | 0.0 | 0.9 | 0.00 | 0.00 | 0.00 | 47 | 1016.6 |
| 20260502161702 | 45 | 29 | 1.7 | 1.7 | 0.00 | 0.00 | 0.00 | 47 | 1016.8 |
| 20260502161158 | 47 | 101 | 0.9 | 2.6 | 0.00 | 0.00 | 0.00 | 45 | 1016.7 |
| 20260502160657 | 45 | 32 | 1.7 | 2.6 | 0.00 | 0.00 | 0.00 | 46 | 1016.7 |
| 20260502160156 | 45 | 11 | 1.7 | 2.6 | 0.00 | 0.00 | 0.00 | 46 | 1016.7 |
| 20260502152109 | 48 | 350 | 0.0 | 1.7 | 0.00 | 0.00 | 0.00 | 43 | 1016.7 |
| 20260502151606 | 46 | 315 | 1.7 | 2.6 | 0.00 | 0.00 | 0.00 | 44 | 1016.5 |
| 20260502151103 | 46 | 7 | 2.6 | 4.3 | 0.00 | 0.00 | 0.00 | 45 | 1016.6 |
| 20260502150601 | 46 | 12 | 0.9 | 1.7 | 0.00 | 0.00 | 0.00 | 46 | 1016.9 |
| 20260502130446 | 41 | 14 | 1.7 | 1.7 | 0.00 | 0.00 | 0.00 | 62 | 1016.9 |
| 20260502123428 | 38 | 13 | 1.7 | 1.7 | 0.00 | 0.00 | 0.00 | 70 | 1017.0 |
| 20260502122926 | 39 | 10 | 1.7 | 1.7 | 0.00 | 0.00 | 0.00 | 71 | 1017.0 |
| 20260502122421 | 38 | 359 | 0.9 | 0.9 | 0.00 | 0.00 | 0.00 | 71 | 1017.0 |
| 20260502121920 | 38 | 13 | 3.5 | 4.3 | 0.00 | 0.00 | 0.00 | 72 | 1017.0 |
| 20260502121416 | 38 | 42 | 1.7 | 2.6 | 0.00 | 0.00 | 0.00 | 73 | 1017.2 |
| 20260502120914 | 37 | 4 | 0.9 | 0.9 | 0.00 | 0.00 | 0.00 | 73 | 1017.1 |
| 20260502120410 | 37 | 26 | 0.9 | 0.9 | 0.00 | 0.00 | 0.00 | 74 | 1017.1 |
| 20260502115908 | 36 | 20 | 0.9 | 0.9 | 0.00 | 0.00 | 0.00 | 76 | 1017.0 |
| 20260502115405 | 36 | 16 | 1.7 | 1.7 | 0.00 | 0.00 | 0.00 | 77 | 1016.9 |
| 20260502114900 | 35 | 18 | 0.0 | 0.0 | 0.00 | 0.00 | 0.00 | 79 | 1016.9 |
| 20260502114358 | 35 | 18 | 0.9 | 1.7 | 0.00 | 0.00 | 0.00 | 79 | 1016.8 |
| 20260502113855 | 35 | 3 | 0.0 | 0.0 | 0.00 | 0.00 | 0.00 | 80 | 1016.7 |
| 20260502113352 | 34 | 12 | 1.7 | 1.7 | 0.00 | 0.00 | 0.00 | 81 | 1016.7 |
| 20260502112851 | 34 | 323 | 0.0 | 0.0 | 0.00 | 0.00 | 0.00 | 82 | 1016.7 |
| 20260502112348 | 33 | 345 | 0.0 | 0.0 | 0.00 | 0.00 | 0.00 | 82 | 1016.7 |
| 20260502111845 | 33 | 4 | 0.0 | 0.0 | 0.00 | 0.00 | 0.00 | 83 | 1016.7 |
| 20260502111342 | 33 | 2 | 0.0 | 0.0 | 0.00 | 0.00 | 0.00 | 84 | 1016.6 |
| 20260502110840 | 32 | 12 | 0.0 | 0.0 | 0.00 | 0.00 | 0.00 | 84 | 1016.5 |
| 20260502110338 | 32 | 3 | 0.0 | 0.9 | 0.00 | 0.00 | 0.00 | 85 | 1016.3 |
| 20260502105835 | 31 | 7 | 0.0 | 0.0 | 0.00 | 0.00 | 0.00 | 87 | 1016.3 |
| 20260502105332 | 30 | 7 | 0.0 | 0.0 | 0.00 | 0.00 | 0.00 | 89 | 1016.5 |
| 20260502104829 | 30 | 10 | 0.0 | 0.0 | 0.00 | 0.00 | 0.00 | 90 | 1016.5 |
| 20260502104327 | 30 | 16 | 0.0 | 0.0 | 0.00 | 0.00 | 0.00 | 91 | 1016.5 |
| 20260502103824 | 30 | 16 | 0.0 | 0.0 | 0.00 | 0.00 | 0.00 | 90 | 1016.5 |
| 20260502103321 | 30 | 16 | 0.0 | 0.0 | 0.00 | 0.00 | 0.00 | 90 | 1016.2 |
| 20260502102818 | 30 | 32 | 0.0 | 0.0 | 0.00 | 0.00 | 0.00 | 90 | 1016.5 |
| 20260502102314 | 31 | 10 | 0.0 | 0.0 | 0.00 | 0.00 | 0.00 | 88 | 1016.4 |
| 20260502101812 | 31 | 1 | 0.0 | 0.0 | 0.00 | 0.00 | 0.00 | 87 | 1016.3 |
| 20260502101310 | 31 | 14 | 0.0 | 0.0 | 0.00 | 0.00 | 0.00 | 87 | 1016.3 |
| 20260502100808 | 31 | 13 | 0.0 | 0.0 | 0.00 | 0.00 | 0.00 | 87 | 1016.3 |
| 20260502100307 | 31 | 13 | 0.0 | 0.0 | 0.00 | 0.00 | 0.00 | 87 | 1016.4 |
| 20260502091241 | 33 | 13 | 0.0 | 0.0 | 0.00 | 0.00 | 0.00 | 81 | 1016.1 |
| 20260502090738 | 33 | 13 | 0.0 | 0.0 | 0.00 | 0.00 | 0.00 | 80 | 1016.0 |
| 20260502090235 | 33 | 7 | 0.0 | 0.0 | 0.00 | 0.00 | 0.00 | 79 | 1015.9 |
| 20260502071136 | 37 | 2 | 0.0 | 0.0 | 0.00 | 0.00 | 0.00 | 68 | 1015.6 |
| 20260502070634 | 37 | 2 | 0.0 | 0.0 | 0.00 | 0.00 | 0.00 | 68 | 1015.6 |
| 20260502070131 | 37 | 3 | 0.0 | 0.9 | 0.00 | 0.00 | 0.00 | 67 | 1015.8 |
| 20260502065629 | 38 | 5 | 0.0 | 0.0 | 0.00 | 0.00 | 0.00 | 67 | 1015.8 |
| 20260502065127 | 38 | 357 | 0.9 | 0.9 | 0.00 | 0.00 | 0.00 | 67 | 1015.8 |
| 20260502064626 | 38 | 11 | 0.0 | 0.0 | 0.00 | 0.00 | 0.00 | 67 | 1015.8 |
| 20260502064122 | 38 | 13 | 0.0 | 0.0 | 0.00 | 0.00 | 0.00 | 66 | 1015.6 |
| 20260502063620 | 38 | 9 | 0.0 | 0.0 | 0.00 | 0.00 | 0.00 | 66 | 1015.8 |
| 20260502063117 | 38 | 13 | 0.0 | 0.0 | 0.00 | 0.00 | 0.00 | 64 | 1015.7 |
| 20260502062614 | 39 | 5 | 0.9 | 0.9 | 0.00 | 0.00 | 0.00 | 63 | 1016.0 |
| 20260502062112 | 39 | 3 | 0.9 | 0.9 | 0.00 | 0.00 | 0.00 | 64 | 1015.8 |
| 20260502061610 | 39 | 10 | 0.0 | 0.0 | 0.00 | 0.00 | 0.00 | 64 | 1015.8 |
| 20260502061107 | 39 | 37 | 0.0 | 0.0 | 0.00 | 0.00 | 0.00 | 63 | 1016.2 |
| 20260502060607 | 39 | 249 | 0.0 | 0.0 | 0.00 | 0.00 | 0.00 | 62 | 1016.0 |
| 20260502060104 | 39 | 332 | 0.0 | 0.0 | 0.00 | 0.00 | 0.00 | 62 | 1016.0 |
| 20260502055602 | 39 | 13 | 0.0 | 0.0 | 0.00 | 0.00 | 0.00 | 62 | 1015.8 |
| 20260502055100 | 39 | 7 | 0.0 | 0.0 | 0.00 | 0.00 | 0.00 | 62 | 1016.0 |
| 20260502054559 | 39 | 349 | 0.0 | 0.9 | 0.00 | 0.00 | 0.00 | 62 | 1016.0 |
| 20260502054055 | 39 | 23 | 2.6 | 2.6 | 0.00 | 0.00 | 0.00 | 60 | 1016.1 |
| 20260502053552 | 39 | 8 | 0.0 | 0.0 | 0.00 | 0.00 | 0.00 | 62 | 1016.0 |
| 20260502053050 | 39 | 7 | 0.0 | 0.0 | 0.00 | 0.00 | 0.00 | 61 | 1016.1 |
| 20260502052549 | 39 | 13 | 0.0 | 0.0 | 0.00 | 0.00 | 0.00 | 61 | 1016.0 |
| 20260502052046 | 39 | 4 | 0.0 | 0.0 | 0.00 | 0.00 | 0.00 | 61 | 1015.9 |
| 20260502051544 | 40 | 6 | 0.0 | 0.0 | 0.00 | 0.00 | 0.00 | 61 | 1015.8 |
| 20260502051041 | 40 | 16 | 0.0 | 0.9 | 0.00 | 0.00 | 0.00 | 60 | 1015.8 |
| 20260502050537 | 40 | 355 | 1.7 | 2.6 | 0.00 | 0.00 | 0.00 | 60 | 1015.9 |
| 20260502050034 | 40 | 12 | 0.0 | 0.9 | 0.00 | 0.00 | 0.00 | 62 | 1015.9 |
| 20260502045531 | 40 | 9 | 0.9 | 0.9 | 0.00 | 0.00 | 0.00 | 59 | 1015.6 |
| 20260502045029 | 40 | 6 | 1.7 | 1.7 | 0.00 | 0.00 | 0.00 | 58 | 1015.6 |
| 20260502044525 | 40 | 301 | 0.9 | 1.7 | 0.00 | 0.00 | 0.00 | 59 | 1015.6 |
| 20260502044021 | 40 | 14 | 0.0 | 0.9 | 0.00 | 0.00 | 0.00 | 61 | 1015.7 |
| 20260502043519 | 40 | 12 | 0.0 | 0.0 | 0.00 | 0.00 | 0.00 | 61 | 1015.7 |
| 20260502043015 | 40 | 4 | 0.9 | 0.9 | 0.00 | 0.00 | 0.00 | 61 | 1015.6 |
| 20260502042510 | 40 | 21 | 0.0 | 0.9 | 0.00 | 0.00 | 0.00 | 61 | 1015.7 |
| 20260502042008 | 40 | 14 | 0.0 | 0.0 | 0.00 | 0.00 | 0.00 | 60 | 1015.7 |
| 20260502041506 | 40 | 3 | 0.0 | 0.0 | 0.00 | 0.00 | 0.00 | 61 | 1015.5 |
| 20260502041002 | 41 | 13 | 0.0 | 0.0 | 0.00 | 0.00 | 0.00 | 61 | 1015.5 |
| 20260502040459 | 41 | 6 | 0.0 | 0.0 | 0.00 | 0.00 | 0.00 | 59 | 1015.5 |
| 20260502035955 | 41 | 22 | 0.0 | 0.0 | 0.00 | 0.00 | 0.00 | 59 | 1015.4 |
| 20260502035451 | 41 | 38 | 0.0 | 0.9 | 0.00 | 0.00 | 0.00 | 58 | 1015.6 |
| 20260502034949 | 41 | 37 | 1.7 | 1.7 | 0.00 | 0.00 | 0.00 | 58 | 1015.3 |
| 20260502034448 | 41 | 1 | 0.9 | 1.7 | 0.00 | 0.00 | 0.00 | 59 | 1015.3 |
| 20260502033946 | 41 | 6 | 0.0 | 0.9 | 0.00 | 0.00 | 0.00 | 57 | 1015.4 |
| 20260502033443 | 41 | 357 | 1.7 | 1.7 | 0.00 | 0.00 | 0.00 | 58 | 1015.3 |
| 20260502032939 | 41 | 19 | 0.9 | 1.7 | 0.00 | 0.00 | 0.00 | 58 | 1015.3 |
| 20260502032436 | 41 | 335 | 1.7 | 1.7 | 0.00 | 0.00 | 0.00 | 57 | 1015.4 |
| 20260502031933 | 41 | 357 | 0.0 | 0.0 | 0.00 | 0.00 | 0.00 | 58 | 1015.3 |
| 20260502031432 | 41 | 7 | 0.0 | 0.9 | 0.00 | 0.00 | 0.00 | 57 | 1015.3 |
| 20260502030929 | 41 | 25 | 0.0 | 0.0 | 0.00 | 0.00 | 0.00 | 59 | 1015.3 |
| 20260502030427 | 41 | 9 | 2.6 | 2.6 | 0.00 | 0.00 | 0.00 | 57 | 1015.2 |
| 20260502025925 | 41 | 6 | 0.0 | 0.0 | 0.00 | 0.00 | 0.00 | 59 | 1015.3 |
| 20260502025422 | 41 | 333 | 0.0 | 0.9 | 0.00 | 0.00 | 0.00 | 59 | 1015.2 |
| 20260502024920 | 41 | 4 | 0.0 | 0.9 | 0.00 | 0.00 | 0.00 | 59 | 1015.2 |
| 20260502024418 | 41 | 51 | 1.7 | 1.7 | 0.00 | 0.00 | 0.00 | 59 | 1015.4 |
| 20260502023915 | 41 | 260 | 0.9 | 0.9 | 0.00 | 0.00 | 0.00 | 59 | 1015.3 |
| 20260502023413 | 41 | 356 | 0.9 | 1.7 | 0.00 | 0.00 | 0.00 | 60 | 1015.1 |
| 20260502022910 | 41 | 274 | 1.7 | 1.7 | 0.00 | 0.00 | 0.00 | 60 | 1015.1 |
| 20260502022406 | 41 | 354 | 0.9 | 1.7 | 0.00 | 0.00 | 0.00 | 60 | 1015.2 |